This is the latest recevied weather packets stored in our database for station/object SQ6XL-13. If no packets are shown the sender has not sent any weather packets the latest 10 day(s).
| Time | Temp. | Humidity | Pressure | Rain* | Wind** | Luminosity | Snow |
|---|---|---|---|---|---|---|---|
| 1777774667 | 8.33° C | 78% | 1018.1 hPa | 0 mm | - | - | - |
| 1777774131 | 7.22° C | 81% | 1018.2 hPa | 0 mm | - | - | - |
| 1777773652 | 6.67° C | 81% | 1018.3 hPa | 0 mm | - | - | - |
| 1777773122 | 6.11° C | 81% | 1018.2 hPa | 0 mm | - | - | - |
| 1777772557 | 5.56° C | 82% | 1018.3 hPa | 0 mm | - | - | - |
| 1777772007 | 5.56° C | 82% | 1018.2 hPa | 0 mm | - | - | - |
| 1777771487 | 5.56° C | 82% | 1018.2 hPa | 0 mm | - | - | - |
| 1777770962 | 5.56° C | 82% | 1018.3 hPa | 0 mm | - | - | - |
| 1777770407 | 5° C | 82% | 1018.3 hPa | 0 mm | - | - | - |
| 1777769862 | 5° C | 82% | 1018.5 hPa | 0 mm | - | - | - |
| 1777769371 | 5° C | 82% | 1018.5 hPa | 0 mm | - | - | - |
| 1777768862 | 5° C | 83% | 1018.5 hPa | 0 mm | - | - | - |
| 1777768377 | 5° C | 83% | 1018.6 hPa | 0 mm | - | - | - |
| 1777767797 | 5° C | 82% | 1018.7 hPa | 0 mm | - | - | - |
| 1777767247 | 5° C | 81% | 1018.8 hPa | 0 mm | - | - | - |
| 1777766751 | 5° C | 81% | 1018.8 hPa | 0 mm | - | - | - |
| 1777766267 | 5° C | 81% | 1018.9 hPa | 0 mm | - | - | - |
| 1777765702 | 5° C | 81% | 1019 hPa | 0 mm | - | - | - |
| 1777765112 | 5° C | 81% | 1019 hPa | 0 mm | - | - | - |
| 1777764587 | 5° C | 80% | 1019 hPa | 0 mm | - | - | - |
| 1777764022 | 5° C | 80% | 1019.1 hPa | 0 mm | - | - | - |
| 1777763517 | 5.56° C | 80% | 1019.2 hPa | 0 mm | - | - | - |
| 1777762937 | 5.56° C | 80% | 1019 hPa | 0 mm | - | - | - |
| 1777762347 | 5.56° C | 80% | 1019.2 hPa | 0 mm | - | - | - |
| 1777761812 | 5.56° C | 79% | 1019.3 hPa | 0 mm | - | - | - |
* Rain latest hour (hover to see other rain measurements)
** Current wind speed in m/s (hover to see current wind gust speed)